Weather History for Homestead AFB, FL

Change the Weather History Date:

Thursday, March 21, 2013

  Actual Average Record
Temperature  
Mean Temperature 68 °F -  
Max Temperature 75 °F 80 °F 92 °F (1944)
Min Temperature 62 °F 56 °F 35 °F (1971)
Cooling Degree Days 4    
Growing Degree Days 18 (Base 50)    
Moisture  
Dew Point 59 °F    
Average Humidity 75    
Maximum Humidity 94    
Minimum Humidity 47    
Precipitation  
Precipitation 0.00 in - - ()
Sea Level Pressure  
Sea Level Pressure 29.91 in    
Wind  
Wind Speed 6 mph (North)    
Max Wind Speed 10 mph    
Max Gust Speed -    
Visibility 10 miles    
Events      
Averages and records for this station are not official NWS values.
T = Trace of Precipitation, MM = Missing Value Source: NWS Daily Summary

Daily Weather History Graph

Daily Weather History Graph

Search for Another Location

Airport:

Trip Planner

Search our weather history database for the weather conditions in past years. The results will help you decide how hot, cold, wet, or windy it might be!

Date:

Astronomy

Mar. 21, 2013 Rise Set
Actual Time 7:24 AM EDT 7:33 PM EDT
Civil Twilight 7:01 AM EDT 7:56 PM EDT
Nautical Twilight 6:34 AM EDT 8:22 PM EDT
Astronomical Twilight 6:07 AM EDT 8:49 PM EDT
Moon 2:29 PM EDT (3/21) 3:15 AM EDT (3/21)
Length of Visible Light 12h 54m
Length of Day
12h 09m
Waxing Gibbous, 68% of the Moon is Illuminated
Mar 21
Waxing Gibbous
Mar 27
Full
Apr 3
Last Quarter
Apr 10
New
Apr 18
First Quarter

Hourly Weather History & Observations

Time (EDT) Temp. Dew Point Humidity Pressure Visibility Wind Dir Wind Speed Gust Speed Precip Events Conditions
12:58 AM 66.6 °F 59.9 °F 79% 29.88 in 10.0 mi West 4.6 mph - N/A   Clear
1:58 AM 64.8 °F 59.5 °F 83% 29.89 in 10.0 mi WNW 6.9 mph - N/A   Clear
2:58 AM 63.3 °F 59.7 °F 88% 29.88 in 10.0 mi WNW 5.8 mph - N/A   Clear
3:18 AM 64.4 °F 60.8 °F 88% 29.87 in 10.0 mi WNW 8.1 mph - N/A   Mostly Cloudy
3:43 AM 64.4 °F 60.8 °F 88% 29.86 in 10.0 mi WNW 4.6 mph - N/A   Scattered Clouds
3:58 AM 63.3 °F 60.4 °F 90% 29.87 in 10.0 mi WNW 4.6 mph - N/A   Partly Cloudy
4:28 AM 62.6 °F 60.8 °F 94% 29.86 in 10.0 mi NW 6.9 mph - N/A   Mostly Cloudy
4:43 AM 62.6 °F 60.8 °F 94% 29.86 in 10.0 mi NW 8.1 mph - N/A   Scattered Clouds
4:53 AM 62.6 °F 60.8 °F 94% 29.87 in 10.0 mi NW 8.1 mph - N/A   Mostly Cloudy
4:58 AM 63.5 °F 61.5 °F 93% 29.88 in 10.0 mi NW 8.1 mph - N/A   Mostly Cloudy
5:56 AM 64.4 °F 60.8 °F 88% 29.88 in 10.0 mi NW 8.1 mph - N/A   Mostly Cloudy
6:07 AM 64.4 °F 60.8 °F 88% 29.88 in 10.0 mi NW 5.8 mph - N/A   Scattered Clouds
6:58 AM 62.8 °F 61.0 °F 94% 29.91 in 10.0 mi WNW 5.8 mph - N/A   Partly Cloudy
7:58 AM 63.7 °F 61.7 °F 93% 29.92 in 10.0 mi NNW 6.9 mph - N/A   Overcast
8:58 AM 65.8 °F 59.0 °F 79% 29.94 in 10.0 mi North 10.4 mph - N/A   Clear
9:56 AM 68.0 °F 57.2 °F 68% 29.94 in 10.0 mi North 10.4 mph - N/A   Clear
10:56 AM 69.8 °F 57.2 °F 64% 29.95 in 10.0 mi North 6.9 mph - N/A   Clear
11:56 AM 71.6 °F 53.6 °F 53% 29.94 in 10.0 mi Variable 3.5 mph - N/A   Clear
12:56 PM 75.2 °F 53.6 °F 47% 29.93 in 10.0 mi NNE 5.8 mph - N/A   Clear
1:56 PM 75.2 °F 59.0 °F 57% 29.91 in 10.0 mi East 8.1 mph - N/A   Clear
2:56 PM 73.4 °F 55.4 °F 53% 29.89 in 10.0 mi ENE 8.1 mph - N/A   Scattered Clouds
3:56 PM 75.2 °F 55.4 °F 50% 29.89 in 10.0 mi East 10.4 mph - N/A   Clear
4:56 PM 73.4 °F 55.4 °F 53% 29.89 in 10.0 mi ENE 9.2 mph - N/A   Partly Cloudy
5:58 PM 72.0 °F 57.2 °F 60% 29.91 in 10.0 mi East 6.9 mph - N/A   Scattered Clouds
6:58 PM 70.5 °F 57.7 °F 64% 29.92 in 10.0 mi East 4.6 mph - N/A   Scattered Clouds
7:58 PM 69.4 °F 57.9 °F 67% 29.94 in 10.0 mi East 3.5 mph - N/A   Mostly Cloudy
8:58 PM 68.5 °F 57.2 °F 67% 29.95 in 10.0 mi East 3.5 mph - N/A   Clear
9:58 PM 66.7 °F 57.7 °F 73% 29.95 in 10.0 mi East 3.5 mph - N/A   Scattered Clouds
10:58 PM 66.4 °F 57.2 °F 72% 29.95 in 10.0 mi East 4.6 mph - N/A   Partly Cloudy
11:58 PM 65.5 °F 56.8 °F 74% 29.96 in 10.0 mi ESE 3.5 mph - N/A   Clear